Погода в Мушине

Польша     49°21′31″N   20°53′31″E
темп.,
°C
ветер,
м/с
пор.,
м/с
влажн.,
%
обл.,
%
осадки,
мм/ч
давл.,
гПа
погр.,
м
17 сентября, пт
пт1723:00+14зсз119099 0.0 101211
02:00+13сз1195100 0.0 101215
05:00+13ссз1196100 0.0 101010
08:00+14вюв1197100 1.4 100996
11:00+13ссз4698100 8.8 1009473
14:00+12ссз41197100 20.2 1009731
17:00+11ссз31196100 3.9 1010817
20:00+11сз279628 3.9 1011368
18 сентября, сб
сб1823:00+9зсз229812 0.0 101236
02:00+10з239794 0.0 101272
05:00+10зсз2396100 0.0 101176
08:00+10ссз249599 0.6 1012292
11:00+11зсз238699 0.1 1012456
14:00+12зсз2677100 0.1 1011962
17:00+13сз366883 0.0 10111073
20:00+9зсз3118698 0.0 1012496
19 сентября, вс
вс1923:00+10зсз3985100 0.2 1011746
02:00+8ссз2697100 1.2 1012537
05:00+7зсз21094100 0.1 1013928
08:00+7зсз2893100 0.3 10141031
11:00+8сз378693 0.1 1014849
14:00+11сз3562100 0.2 10131247
17:00+10ссз376836 0.0 1013988
20:00+6ссз249099 0.0 1015214
20 сентября, пн
пн2023:00+7сз2486100 0.0 1015300
02:00+7ссз2489100 0.0 1016460
05:00+6ссз2391100 0.0 1017343
08:00+6ссз238898 0.0 1017312
11:00+9ссз247695 0.0 1018761
14:00+11ссз346755 0.0 1017958
17:00+9с337268 0.0 1018752
20:00+7с138896 0.0 1020188
21 сентября, вт
вт2123:00+6с129292 0.0 102187
02:00+4ссз119835 0.0 102116
05:00+3ссз229863 0.0 102242
08:00+6ссз248399 0.0 1022487
11:00+8с3564100 0.0 10231142
14:00+9ссз345897 0.0 10221257
17:00+8с3461100 0.0 10231052
20:00+7ссз246887 0.0 1024167